• In United Kingdom
  • List of Countries
  • For 7 days
  • Water Temperature
  • Satellite Maps
  • Weather Map
  • Weather Widgets
  • user-avatar
    Login

    Hourly Weather Algiers

    Today, 17 December, Sunday

    Time Temperature Precipitation Wind Pressure Humidity
    00:00 +9°C° 0 mm 2 mps 753 mmHg 86%
    01:00 +8°C° 0.1 mm 2 mps 753 mmHg 87%
    02:00 +8°C° 0.1 mm 2 mps 753 mmHg 87%
    03:00 +8°C° 0.1 mm 2 mps 754 mmHg 88%
    04:00 +8°C° 0.3 mm 3 mps 754 mmHg 87%
    05:00 +7°C° 0.3 mm 3 mps 754 mmHg 87%
    06:00 +7°C° 0.3 mm 3 mps 754 mmHg 87%
    07:00 +8°C° 0.4 mm 3 mps 755 mmHg 83%
    08:00 +9°C° 0.4 mm 3 mps 755 mmHg 79%
    09:00 +10°C° 0.4 mm 3 mps 756 mmHg 75%
    10:00 +11°C° 0.3 mm 3 mps 756 mmHg 71%
    11:00 +11°C° 0.3 mm 4 mps 756 mmHg 68%
    12:00 +12°C° 0.3 mm 4 mps 756 mmHg 64%
    13:00 +12°C° 0.2 mm 4 mps 756 mmHg 66%
    14:00 +12°C° 0.2 mm 5 mps 756 mmHg 68%
    15:00 +10°C° 0.2 mm 5 mps 757 mmHg 70%
    16:00 +10°C° 0 mm 4 mps 757 mmHg 73%
    17:00 +10°C° 0 mm 4 mps 757 mmHg 76%
    18:00 +9°C° 0 mm 3 mps 758 mmHg 80%
    19:00 +8°C° 0 mm 3 mps 758 mmHg 80%
    20:00 +8°C° 0 mm 2 mps 759 mmHg 81%
    21:00 +8°C° 0 mm 2 mps 759 mmHg 81%
    22:00 +7°C° 0 mm 2 mps 759 mmHg 82%
    23:00 +7°C° 0 mm 2 mps 759 mmHg 82%

    Tomorrow, 18 December, Monday

    Time Temperature Precipitation Wind Pressure Humidity
    00:00 +8°C° 0 mm 1 mps 760 mmHg 83%
    01:00 +7°C° 0 mm 2 mps 760 mmHg 82%
    02:00 +6°C° 0 mm 2 mps 760 mmHg 82%
    03:00 +6°C° 0 mm 2 mps 760 mmHg 82%
    04:00 +6°C° 0 mm 2 mps 760 mmHg 80%
    05:00 +6°C° 0 mm 2 mps 760 mmHg 78%
    06:00 +6°C° 0 mm 2 mps 760 mmHg 77%
    07:00 +7°C° 0 mm 2 mps 760 mmHg 71%
    08:00 +8°C° 0 mm 2 mps 760 mmHg 64%
    09:00 +10°C° 0 mm 2 mps 760 mmHg 58%
    10:00 +12°C° 0 mm 2 mps 760 mmHg 56%
    11:00 +13°C° 0 mm 2 mps 760 mmHg 54%
    12:00 +13°C° 0 mm 2 mps 759 mmHg 51%
    13:00 +13°C° 0 mm 2 mps 759 mmHg 52%
    14:00 +13°C° 0 mm 2 mps 758 mmHg 53%
    15:00 +12°C° 0 mm 3 mps 758 mmHg 54%
    16:00 +12°C° 0 mm 2 mps 758 mmHg 60%
    17:00 +10°C° 0 mm 2 mps 758 mmHg 65%
    18:00 +9°C° 0 mm 2 mps 758 mmHg 71%
    19:00 +8°C° 0 mm 2 mps 758 mmHg 72%
    20:00 +8°C° 0 mm 3 mps 758 mmHg 72%
    21:00 +8°C° 0 mm 3 mps 757 mmHg 73%
    22:00 +7°C° 0 mm 4 mps 757 mmHg 72%
    23:00 +7°C° 0 mm 4 mps 757 mmHg 71%

    Day after tomorrow, 19 December, Tuesday

    Time Temperature Precipitation Wind Pressure Humidity
    00:00 +6°C° 0 mm 5 mps 756 mmHg 70%
    01:00 +6°C° 0 mm 5 mps 756 mmHg 67%
    02:00 +6°C° 0 mm 5 mps 755 mmHg 65%
    03:00 +6°C° 0 mm 5 mps 755 mmHg 63%
    04:00 +6°C° 0 mm 5 mps 755 mmHg 59%
    05:00 +6°C° 0 mm 5 mps 755 mmHg 56%
    06:00 +6°C° 0 mm 5 mps 755 mmHg 52%
    07:00 +7°C° 0.5 mm 5 mps 755 mmHg 50%
    08:00 +8°C° 0.5 mm 5 mps 755 mmHg 48%
    09:00 +9°C° 0.5 mm 5 mps 756 mmHg 46%
    10:00 +10°C° 1.3 mm 4 mps 755 mmHg 57%
    11:00 +8°C° 1.3 mm 4 mps 755 mmHg 68%
    12:00 +9°C° 1.3 mm 3 mps 755 mmHg 79%
    13:00 +8°C° 0.2 mm 4 mps 755 mmHg 80%
    14:00 +10°C° 0.2 mm 4 mps 755 mmHg 81%
    15:00 +10°C° 0.2 mm 4 mps 755 mmHg 82%
    16:00 +9°C° 0.5 mm 5 mps 755 mmHg 84%
    17:00 +9°C° 0.5 mm 5 mps 755 mmHg 86%
    18:00 +9°C° 0.5 mm 6 mps 756 mmHg 88%
    19:00 +8°C° 0.5 mm 6 mps 756 mmHg 89%
    20:00 +8°C° 0.5 mm 6 mps 757 mmHg 90%
    21:00 +8°C° 0.5 mm 6 mps 757 mmHg 92%
    22:00 +8°C° 0.4 mm 6 mps 757 mmHg 92%
    23:00 +8°C° 0.4 mm 6 mps 757 mmHg 93%

    20 December, Wednesday

    Time Temperature Precipitation Wind Pressure Humidity
    00:00 +8°C° 0.4 mm 5 mps 758 mmHg 93%
    01:00 +8°C° 0.2 mm 5 mps 758 mmHg 92%
    02:00 +8°C° 0.2 mm 4 mps 758 mmHg 91%
    03:00 +8°C° 0.2 mm 4 mps 758 mmHg 89%
    04:00 +7°C° 0.2 mm 4 mps 758 mmHg 89%
    05:00 +7°C° 0.2 mm 4 mps 758 mmHg 89%
    06:00 +8°C° 0.2 mm 3 mps 758 mmHg 89%
    07:00 +9°C° 0.2 mm 3 mps 758 mmHg 85%
    08:00 +10°C° 0.2 mm 3 mps 759 mmHg 82%
    09:00 +11°C° 0.2 mm 3 mps 759 mmHg 79%
    10:00 +11°C° 0.2 mm 3 mps 759 mmHg 78%
    11:00 +11°C° 0.2 mm 3 mps 759 mmHg 78%
    12:00 +12°C° 0.2 mm 3 mps 759 mmHg 77%
    13:00 +12°C° 0.1 mm 4 mps 759 mmHg 78%
    14:00 +11°C° 0.1 mm 4 mps 758 mmHg 78%
    15:00 +11°C° 0.1 mm 4 mps 758 mmHg 78%
    16:00 +11°C° 0.1 mm 3 mps 759 mmHg 80%
    17:00 +10°C° 0.1 mm 3 mps 759 mmHg 82%
    18:00 +10°C° 0.1 mm 2 mps 759 mmHg 83%
    19:00 +9°C° 0.1 mm 2 mps 760 mmHg 83%
    20:00 +9°C° 0.1 mm 2 mps 760 mmHg 84%
    21:00 +9°C° 0.1 mm 2 mps 760 mmHg 84%
    22:00 +9°C° 0.1 mm 2 mps 760 mmHg 85%
    23:00 +9°C° 0.1 mm 2 mps 760 mmHg 85%

    21 December, Thursday

    Time Temperature Precipitation Wind Pressure Humidity
    00:00 +9°C° 0.1 mm 2 mps 760 mmHg 86%
    01:00 +9°C° 0.3 mm 2 mps 760 mmHg 87%
    02:00 +9°C° 0.3 mm 3 mps 760 mmHg 87%
    03:00 +9°C° 0.3 mm 3 mps 760 mmHg 88%
    04:00 +8°C° 0.3 mm 4 mps 760 mmHg 89%
    05:00 +8°C° 0.3 mm 4 mps 760 mmHg 90%
    06:00 +8°C° 0.3 mm 4 mps 760 mmHg 91%
    07:00 +10°C° 0.1 mm 4 mps 761 mmHg 90%
    08:00 +10°C° 0.1 mm 4 mps 761 mmHg 89%
    09:00 +11°C° 0.1 mm 3 mps 762 mmHg 88%
    10:00 +11°C° 0.1 mm 3 mps 762 mmHg 84%
    11:00 +12°C° 0.1 mm 3 mps 762 mmHg 80%
    12:00 +12°C° 0.1 mm 3 mps 762 mmHg 76%
    13:00 +13°C° 0 mm 3 mps 762 mmHg 75%
    14:00 +13°C° 0 mm 3 mps 762 mmHg 73%
    15:00 +13°C° 0 mm 3 mps 761 mmHg 72%
    16:00 +12°C° 0 mm 3 mps 762 mmHg 77%
    17:00 +11°C° 0 mm 3 mps 762 mmHg 82%
    18:00 +9°C° 0 mm 3 mps 763 mmHg 87%
    19:00 +9°C° 0 mm 2 mps 763 mmHg 88%
    20:00 +9°C° 0 mm 2 mps 763 mmHg 88%
    21:00 +8°C° 0 mm 2 mps 764 mmHg 89%
    22:00 +8°C° 0 mm 2 mps 763 mmHg 89%
    23:00 +9°C° 0 mm 1 mps 763 mmHg 89%

    22 December, Friday

    Time Temperature Precipitation Wind Pressure Humidity
    00:00 +9°C° 0 mm 1 mps 763 mmHg 89%
    01:00 +8°C° 0 mm 1 mps 763 mmHg 89%
    02:00 +8°C° 0 mm 1 mps 763 mmHg 89%
    03:00 +8°C° 0 mm 1 mps 762 mmHg 89%
    04:00 +8°C° 0 mm 1 mps 762 mmHg 88%
    05:00 +7°C° 0 mm 2 mps 762 mmHg 88%
    06:00 +6°C° 0 mm 2 mps 762 mmHg 87%
    07:00 +8°C° 0 mm 2 mps 762 mmHg 82%
    08:00 +9°C° 0 mm 2 mps 762 mmHg 77%
    09:00 +10°C° 0 mm 2 mps 762 mmHg 72%
    10:00 +12°C° 0 mm 2 mps 762 mmHg 68%
    11:00 +13°C° 0 mm 2 mps 761 mmHg 64%
    12:00 +14°C° 0 mm 2 mps 761 mmHg 59%
    13:00 +14°C° 0 mm 2 mps 760 mmHg 61%
    14:00 +14°C° 0 mm 2 mps 760 mmHg 62%
    15:00 +14°C° 0 mm 2 mps 760 mmHg 64%
    16:00 +13°C° 0 mm 2 mps 760 mmHg 70%
    17:00 +12°C° 0 mm 1 mps 760 mmHg 77%
    18:00 +11°C° 0 mm 1 mps 760 mmHg 84%
    19:00 +10°C° 0 mm 1 mps 760 mmHg 85%
    20:00 +10°C° 0 mm 1 mps 760 mmHg 86%
    21:00 +10°C° 0 mm 1 mps 760 mmHg 87%
    22:00 +9°C° 0 mm 2 mps 760 mmHg 88%
    23:00 +9°C° 0 mm 2 mps 760 mmHg 88%
    Show more